Palacios, TX

2:39 PM CST on February 27, 2017 (GMT -0600)
Palacios Municipal

Weather History for KPSX - October, 2013

Change the Weather History Date:

Friday, October 11, 2013

  Actual Average Record
Temperature  
Mean Temperature 80 °F -  
Max Temperature 88 °F 82 °F 91 °F (1950)
Min Temperature 73 °F 62 °F 43 °F (1990)
Cooling Degree Days 15    
Growing Degree Days 30 (Base 50)    
Moisture  
Dew Point 73 °F    
Average Humidity 79    
Maximum Humidity 93    
Minimum Humidity 65    
Precipitation  
Precipitation 0.01 in - - ()
Sea Level Pressure  
Sea Level Pressure 29.91 in    
Wind  
Wind Speed 10 mph (SE)    
Max Wind Speed 16 mph    
Max Gust Speed 22 mph    
Visibility 10 miles    
Events Rain    
Averages and records for this station are not official NWS values.
T = Trace of Precipitation, MM = Missing Value Source: NWS Daily Summary

Daily Weather History Graph

Daily Weather History Graph

Search for Another Location

Airport or City:

Trip Planner

Search our weather history database for the weather conditions in past years. The results will help you decide how hot, cold, wet, or windy it might be!

Date:

Astronomy

Oct. 11, 2013 Rise Set
Actual Time 7:23 AM CDT 6:59 PM CDT
Civil Twilight 6:59 AM CDT 7:22 PM CDT
Nautical Twilight 6:32 AM CDT 7:50 PM CDT
Astronomical Twilight 6:05 AM CDT 8:17 PM CDT
Moon 1:51 PM CDT (10/11) No Moon Set
Length of Visible Light 12h 22m
Length of Day
11h 35m
Waxing Crescent, 47% of the Moon is Illuminated
Oct 11
Waxing Crescent
Oct 11
First Quarter
Oct 18
Full
Oct 26
Last Quarter
Nov 3
New

Hourly Weather History & Observations

Time (CDT) Temp. Heat Index Dew Point Humidity Pressure Visibility Wind Dir Wind Speed Gust Speed Precip Events Conditions
12:53 AM 75.9 °F - 69.1 °F 79% 29.93 in 10.0 mi SE 10.4 mph - N/A   Clear
1:53 AM 75.9 °F - 69.1 °F 79% 29.92 in 10.0 mi SE 9.2 mph - N/A   Scattered Clouds
2:53 AM 75.0 °F - 69.1 °F 82% 29.91 in 10.0 mi SE 8.1 mph - N/A   Mostly Cloudy
3:53 AM 75.9 °F - 70.0 °F 82% 29.89 in 10.0 mi SSE 8.1 mph - N/A   Overcast
4:53 AM 75.9 °F - 70.0 °F 82% 29.89 in 10.0 mi SSE 8.1 mph - N/A   Mostly Cloudy
5:53 AM 73.9 °F - 70.0 °F 87% 29.90 in 10.0 mi SE 6.9 mph - N/A   Clear
6:53 AM 75.0 °F - 71.1 °F 87% 29.91 in 10.0 mi SE 4.6 mph - N/A   Scattered Clouds
7:53 AM 75.9 °F - 72.0 °F 87% 29.92 in 9.0 mi SE 4.6 mph - N/A   Overcast
8:53 AM 80.1 °F 84.2 °F 73.0 °F 79% 29.94 in 10.0 mi SSE 6.9 mph - N/A   Mostly Cloudy
9:53 AM 84.0 °F 90.2 °F 73.0 °F 69% 29.95 in 10.0 mi SE 13.8 mph - N/A   Mostly Cloudy
10:53 AM 84.0 °F 90.2 °F 73.0 °F 69% 29.95 in 10.0 mi SSE 15.0 mph - N/A   Overcast
11:14 AM 84.2 °F 90.9 °F 73.4 °F 70% 29.96 in 10.0 mi SSE 12.7 mph - N/A   Overcast
11:21 AM 84.2 °F 90.9 °F 73.4 °F 70% 29.96 in 10.0 mi SSE 12.7 mph - N/A   Overcast
11:53 AM 84.9 °F 92.1 °F 73.9 °F 69% 29.95 in 10.0 mi SSE 15.0 mph - N/A   Overcast
12:53 PM 87.1 °F 95.4 °F 73.9 °F 65% 29.93 in 10.0 mi SE 13.8 mph - N/A   Partly Cloudy
1:53 PM 84.9 °F 93.3 °F 75.0 °F 72% 29.91 in 10.0 mi SSE 16.1 mph 21.9 mph 0.00 in   Overcast
2:53 PM 86.0 °F 95.1 °F 75.0 °F 70% 29.88 in 10.0 mi SSE 13.8 mph - N/A   Mostly Cloudy
3:51 PM 78.8 °F - 71.6 °F 78% 29.88 in 7.0 mi South 12.7 mph - 0.00 in Rain Light Rain
3:53 PM 78.1 °F - 72.0 °F 81% 29.89 in 6.0 mi South 13.8 mph - 0.00 in Rain Light Rain
4:53 PM 82.0 °F 87.4 °F 73.0 °F 74% 29.88 in 10.0 mi SE 10.4 mph - 0.01 in   Clear
5:53 PM 82.0 °F 86.7 °F 72.0 °F 71% 29.88 in 10.0 mi SE 10.4 mph - N/A   Clear
6:53 PM 80.1 °F 85.1 °F 75.0 °F 85% 29.88 in 10.0 mi ESE 9.2 mph - N/A   Scattered Clouds
7:53 PM 80.1 °F 85.4 °F 75.9 °F 87% 29.89 in 10.0 mi North - - N/A   Clear
8:53 PM 80.1 °F 85.8 °F 77.0 °F 90% 29.89 in 10.0 mi SE 11.5 mph - N/A   Clear
9:53 PM 80.1 °F 85.8 °F 77.0 °F 90% 29.90 in 10.0 mi SE 10.4 mph - N/A   Clear
10:53 PM 80.1 °F 85.4 °F 75.9 °F 87% 29.91 in 10.0 mi SSE 11.5 mph - N/A   Clear
11:53 PM 78.1 °F - 75.9 °F 93% 29.91 in 10.0 mi SE 6.9 mph - N/A   Clear